Wind_Speed
44 43 42 41 39 42 44 43 47 50 52 54 51 52 52 51 51 49 50 50 52 54
43 42 42 44 44 40 33 33 48 50 50 53 52 54 55 57 54 53 52 50 52 53
40 40 40 40 42 39 36 42 45 45 45 51 51 53 57 58 56 55 54 54 53 55
16 23 37 38 36 40 41 39 39 40 45 43 39 49 54 56 56 57 56 56 56 56
19 18 19 21 22 27 33 33 33 36 44 43 46 40 47 53 58 59 58 57 58 58
19 15 10 9 11 10 14 14 13 21 16 36 35 33 48 43 56 54 53 56 55 58
14 14 14 11 7 1 3 5 7 8 13 9 17 26 31 33 31 38 40 57 49 54
16 13 10 6 3 2 2 1 3 5 6 8 13 15 18 23 29 39 41 41 38 49
14 15 12 12 10 7 9 7 7 9 7 5 6 10 16 17 21 28 38 42 41 47
14 16 14 12 11 10 12 12 12 12 12 11 9 9 11 14 19 20 24 28 38 37
7 11 11 11 13 12 12 13 13 14 14 14 16 17 15 15 17 18 23 26 32 40
13 14 14 12 12 13 15 17 16 18 18 16 14 16 21 23 21 20 20 22 28 29
19 19 17 16 16 16 17 17 19 22 21 20 19 18 17 19 23 24 24 24 25 26
24 24 22 23 20 20 20 22 22 24 25 24 22 23 23 23 21 23 24 25 23 24
Wind_Direction
215 220 223 221 227 224 215 223 234 231 233 235 231 231 232 231 231 231 232 231 232 235
215 215 216 222 220 219 220 234 240 238 239 236 237 234 231 230 230 232 234 233 236 237
207 210 217 219 219 222 219 234 236 236 234 234 244 243 237 236 233 232 234 234 233 234
156 201 216 213 211 212 221 226 227 231 237 233 248 249 247 243 240 235 236 234 234 235
114 126 143 171 195 215 225 227 228 230 241 242 248 253 244 245 243 239 238 239 237 237
95 101 116 136 155 180 200 206 208 227 225 234 217 235 238 243 242 244 248 244 244 242
64 91 91 87 86 96 225 241 242 240 243 260 238 238 235 243 248 251 253 252 249 248
32 41 57 65 93 57 33 9 283 284 266 254 246 228 227 233 241 236 238 247 250 250
22 3 39 42 27 343 317 304 287 281 290 258 228 237 241 239 235 239 246 247 237 254
352 342 4 7 17 6 348 329 310 300 286 270 270 260 245 249 246 244 236 238 245 240
327 313 318 327 338 343 334 330 323 317 311 297 286 278 271 252 250 248 241 240 236 240
312 303 305 306 299 303 310 310 314 313 313 315 307 295 282 275 266 257 253 250 243 242
301 297 298 299 293 288 287 285 293 301 304 307 308 312 306 287 277 268 258 251 249 243
293 290 288 285 290 285 280 275 277 281 290 296 301 304 308 306 288 271 265 255 248 248
Height
1388 1395 1401 1408 1414 1415 1420 1427 1434 1436 1440 1446 1452 1458 1465 1471 1475 1479 1484 1489 1494 1497
1382 1387 1392 1397 1403 1407 1405 1418 1428 1432 1435 1438 1443 1447 1453 1458 1465 1471 1476 1481 1486 1490
1373 1380 1387 1392 1398 1401 1408 1415 1421 1424 1431 1431 1435 1441 1446 1449 1454 1460 1465 1470 1476 1480
1373 1377 1382 1387 1392 1395 1402 1407 1413 1415 1423 1425 1426 1434 1437 1442 1447 1450 1455 1459 1464 1468
1378 1381 1383 1385 1390 1395 1397 1402 1407 1412 1411 1418 1425 1426 1429 1434 1438 1441 1445 1450 1454 1459
1380 1382 1384 1388 1391 1394 1396 1399 1401 1404 1407 1409 1414 1416 1401 1422 1425 1426 1433 1438 1443 1449
1385 1383 1386 1389 1391 1395 1397 1398 1399 1402 1402 1403 1408 1411 1416 1417 1413 1419 1422 1423 1435 1441
1397 1392 1388 1390 1392 1396 1398 1397 1399 1400 1402 1405 1411 1406 1410 1411 1413 1415 1417 1424 1427 1428
1401 1405 1393 1389 1391 1392 1395 1397 1397 1398 1399 1403 1401 1403 1406 1408 1408 1411 1413 1416 1420 1424
1402 1408 1398 1394 1392 1394 1394 1393 1392 1395 1395 1395 1396 1398 1397 1400 1403 1405 1406 1409 1412 1414
1396 1403 1397 1395 1395 1392 1392 1395 1393 1394 1392 1389 1389 1390 1392 1394 1397 1399 1401 1404 1404 1406
1393 1393 1395 1389 1390 1389 1389 1391 1391 1391 1391 1389 1389 1388 1387 1388 1389 1389 1391 1395 1395 1397
1388 1390 1387 1382 1386 1386 1386 1385 1384 1388 1388 1387 1386 1386 1384 1383 1383 1384 1387 1387 1387 1387
1385 1384 1379 1378 1377 1380 1381 1378 1379 1381 1382 1384 1380 1380 1380 1378 1377 1380 1380 1379 1379 1379